Location: Stuttgart
(48.8069°N, 9.1544°E)
Time: 04:40:07
(UTC+02:00)

ISS - Pass Details

Date: 14 May 2021
Orbit: 417 x 422 km, 51.6° (Epoch: 15 June)

Event Time Altitude Azimuth Distance (km) Brightness Sun altitude
Rises 04:25:47 0° 290° (WNW) 2,376 -0.2 -10.9°
Reaches altitude 10° 04:27:55 10° 285° (WNW) 1,509 -1.2 -10.6°
Maximum altitude 04:31:12 48° 210° (SSW) 563 -3.5 -10.2°
Drops below altitude 10° 04:34:28 10° 135° (SE) 1,504 -0.9 -9.9°
Sets 04:36:36 0° 129° (SE) 2,366 0.2 -9.6°
